Year,Month,Day,Hour,Minute,Value (Times are PST for temperature in C)
2009,08,22,00,00,15.80
2009,08,22,00,01,15.70
2009,08,22,00,02,15.70
2009,08,22,00,03,15.60
2009,08,22,00,04,15.60
2009,08,22,00,05,15.50
2009,08,22,00,06,15.40
2009,08,22,00,07,15.30
2009,08,22,00,08,15.30
2009,08,22,00,09,15.20
2009,08,22,00,10,15.00
2009,08,22,00,11,15.00
2009,08,22,00,12,15.00
2009,08,22,00,13,14.80
2009,08,22,00,14,14.70
2009,08,22,00,15,14.50
2009,08,22,00,16,14.40
2009,08,22,00,17,14.30
2009,08,22,00,18,14.20
2009,08,22,00,19,14.10
2009,08,22,00,20,14.00
2009,08,22,00,21,14.00
2009,08,22,00,22,13.90
2009,08,22,00,23,13.80
2009,08,22,00,24,13.80
2009,08,22,00,25,13.90
2009,08,22,00,26,13.90
2009,08,22,00,27,14.00
2009,08,22,00,28,14.00
2009,08,22,00,29,14.00
2009,08,22,00,30,13.90
2009,08,22,00,31,13.90
2009,08,22,00,32,13.80
2009,08,22,00,33,13.70
2009,08,22,00,34,13.70
2009,08,22,00,35,13.60
2009,08,22,00,36,13.60
2009,08,22,00,37,13.50
2009,08,22,00,38,13.50
2009,08,22,00,39,13.40
2009,08,22,00,40,13.40
2009,08,22,00,41,13.40
2009,08,22,00,42,13.40
2009,08,22,00,43,13.30
2009,08,22,00,44,13.30
2009,08,22,00,45,13.30
2009,08,22,00,46,13.30
2009,08,22,00,47,13.30
2009,08,22,00,48,13.30
2009,08,22,00,49,13.20
2009,08,22,00,50,13.20
2009,08,22,00,51,13.20
2009,08,22,00,52,13.10
2009,08,22,00,53,13.00
2009,08,22,00,54,12.90
2009,08,22,00,55,12.90
2009,08,22,00,56,12.80
2009,08,22,00,57,12.80
2009,08,22,00,58,12.70
2009,08,22,00,59,12.70
2009,08,22,01,00,12.70
2009,08,22,01,01,12.70
2009,08,22,01,02,12.70
2009,08,22,01,03,12.70
2009,08,22,01,04,12.60
2009,08,22,01,05,12.60
2009,08,22,01,06,12.50
2009,08,22,01,07,12.50
2009,08,22,01,08,12.40
2009,08,22,01,09,12.30
2009,08,22,01,10,12.30
2009,08,22,01,11,12.30
2009,08,22,01,12,12.30
2009,08,22,01,13,12.30
2009,08,22,01,14,12.40
2009,08,22,01,15,12.40
2009,08,22,01,16,12.50
2009,08,22,01,17,12.50
2009,08,22,01,18,12.50
2009,08,22,01,19,12.40
2009,08,22,01,20,12.40
2009,08,22,01,21,12.40
2009,08,22,01,22,12.40
2009,08,22,01,23,12.40
2009,08,22,01,24,12.40
2009,08,22,01,25,12.40
2009,08,22,01,26,12.40
2009,08,22,01,27,12.40
2009,08,22,01,28,12.40
2009,08,22,01,29,12.30
2009,08,22,01,30,12.30
2009,08,22,01,31,12.20
2009,08,22,01,32,12.20
2009,08,22,01,33,12.20
2009,08,22,01,34,12.10
2009,08,22,01,35,12.10
2009,08,22,01,36,12.00
2009,08,22,01,37,11.90
2009,08,22,01,38,11.90
2009,08,22,01,39,11.80
2009,08,22,01,40,11.80
2009,08,22,01,41,11.70
2009,08,22,01,42,11.70
2009,08,22,01,43,11.70
2009,08,22,01,44,11.70
2009,08,22,01,45,11.60
2009,08,22,01,46,11.60
2009,08,22,01,47,11.60
2009,08,22,01,48,11.60
2009,08,22,01,49,11.60
2009,08,22,01,50,11.50
2009,08,22,01,51,11.50
2009,08,22,01,52,11.50
2009,08,22,01,53,11.50
2009,08,22,01,54,11.40
2009,08,22,01,55,11.40
2009,08,22,01,56,11.40
2009,08,22,01,57,11.40
2009,08,22,01,58,11.40
2009,08,22,01,59,11.40
2009,08,22,02,00,11.30
2009,08,22,02,01,11.30
2009,08,22,02,02,11.30
2009,08,22,02,03,11.30
2009,08,22,02,04,11.20
2009,08,22,02,05,11.20
2009,08,22,02,06,11.20
2009,08,22,02,07,11.10
2009,08,22,02,08,11.10
2009,08,22,02,09,11.10
2009,08,22,02,10,11.10
2009,08,22,02,11,11.10
2009,08,22,02,12,11.10
2009,08,22,02,13,11.10
2009,08,22,02,14,11.10
2009,08,22,02,15,11.10
2009,08,22,02,16,11.10
2009,08,22,02,17,11.10
2009,08,22,02,18,11.10
2009,08,22,02,19,11.10
2009,08,22,02,20,11.10
2009,08,22,02,21,11.10
2009,08,22,02,22,11.00
2009,08,22,02,23,11.00
2009,08,22,02,24,11.00
2009,08,22,02,25,10.90
2009,08,22,02,26,10.90
2009,08,22,02,27,10.90
2009,08,22,02,28,10.90
2009,08,22,02,29,10.90
2009,08,22,02,30,10.80
2009,08,22,02,31,10.80
2009,08,22,02,32,10.80
2009,08,22,02,33,10.80
2009,08,22,02,34,10.80
2009,08,22,02,35,10.80
2009,08,22,02,36,10.80
2009,08,22,02,37,10.80
2009,08,22,02,38,10.80
2009,08,22,02,39,10.80
2009,08,22,02,40,10.70
2009,08,22,02,41,10.70
2009,08,22,02,42,10.70
2009,08,22,02,43,10.70
2009,08,22,02,44,10.70
2009,08,22,02,45,10.70
2009,08,22,02,46,10.70
2009,08,22,02,47,10.70
2009,08,22,02,48,10.70
2009,08,22,02,49,10.70
2009,08,22,02,50,10.70
2009,08,22,02,51,10.70
2009,08,22,02,52,10.70
2009,08,22,02,53,10.70
2009,08,22,02,54,10.70
2009,08,22,02,55,10.70
2009,08,22,02,56,10.70
2009,08,22,02,57,10.70
2009,08,22,02,58,10.70
2009,08,22,02,59,10.70
2009,08,22,03,00,10.70
2009,08,22,03,01,10.70
2009,08,22,03,02,10.70
2009,08,22,03,03,10.70
2009,08,22,03,04,10.60
2009,08,22,03,05,10.60
2009,08,22,03,06,10.60
2009,08,22,03,07,10.50
2009,08,22,03,08,10.50
2009,08,22,03,09,10.40
2009,08,22,03,10,10.40
2009,08,22,03,11,10.40
2009,08,22,03,12,10.30
2009,08,22,03,13,10.30
2009,08,22,03,14,10.30
2009,08,22,03,15,10.30
2009,08,22,03,16,10.20
2009,08,22,03,17,10.20
2009,08,22,03,18,10.20
2009,08,22,03,19,10.20
2009,08,22,03,20,10.10
2009,08,22,03,21,10.10
2009,08,22,03,22,10.10
2009,08,22,03,23,10.00
2009,08,22,03,24,10.00
2009,08,22,03,25,10.00
2009,08,22,03,26,9.90
2009,08,22,03,27,9.90
2009,08,22,03,28,9.90
2009,08,22,03,29,9.90
2009,08,22,03,30,10.00
2009,08,22,03,31,10.00
2009,08,22,03,32,10.10
2009,08,22,03,33,10.10
2009,08,22,03,34,10.10
2009,08,22,03,35,10.10
2009,08,22,03,36,10.10
2009,08,22,03,37,10.10
2009,08,22,03,38,10.10
2009,08,22,03,39,10.10
2009,08,22,03,40,10.10
2009,08,22,03,41,10.10
2009,08,22,03,42,10.10
2009,08,22,03,43,10.10
2009,08,22,03,44,10.10
2009,08,22,03,45,10.00
2009,08,22,03,46,10.00
2009,08,22,03,47,10.00
2009,08,22,03,48,10.00
2009,08,22,03,49,9.90
2009,08,22,03,50,9.90
2009,08,22,03,51,9.90
2009,08,22,03,52,9.90
2009,08,22,03,53,9.90
2009,08,22,03,54,9.80
2009,08,22,03,55,9.80
2009,08,22,03,56,9.80
2009,08,22,03,57,9.70
2009,08,22,03,58,9.70
2009,08,22,03,59,9.70
2009,08,22,04,00,9.70
2009,08,22,04,01,9.60
2009,08,22,04,02,9.60
2009,08,22,04,03,9.60
2009,08,22,04,04,9.60
2009,08,22,04,05,9.60
2009,08,22,04,06,9.70
2009,08,22,04,07,9.70
2009,08,22,04,08,9.70
2009,08,22,04,09,9.80
2009,08,22,04,10,9.90
2009,08,22,04,11,10.00
2009,08,22,04,12,10.10
2009,08,22,04,13,10.20
2009,08,22,04,14,10.30
2009,08,22,04,15,10.40
2009,08,22,04,16,10.50
2009,08,22,04,17,10.50
2009,08,22,04,18,10.60
2009,08,22,04,19,10.70
2009,08,22,04,20,10.70
2009,08,22,04,21,10.80
2009,08,22,04,22,10.80
2009,08,22,04,23,10.80
2009,08,22,04,24,10.90
2009,08,22,04,25,10.90
2009,08,22,04,26,11.00
2009,08,22,04,27,11.10
2009,08,22,04,28,11.10
2009,08,22,04,29,11.20
2009,08,22,04,30,11.30
2009,08,22,04,31,11.30
2009,08,22,04,32,11.30
2009,08,22,04,33,11.40
2009,08,22,04,34,11.40
2009,08,22,04,35,11.50
2009,08,22,04,36,11.50
2009,08,22,04,37,11.60
2009,08,22,04,38,11.60
2009,08,22,04,39,11.70
2009,08,22,04,40,11.70
2009,08,22,04,41,11.70
2009,08,22,04,42,11.70
2009,08,22,04,43,11.70
2009,08,22,04,44,11.70
2009,08,22,04,45,11.70
2009,08,22,04,46,11.70
2009,08,22,04,47,11.60
2009,08,22,04,48,11.60
2009,08,22,04,49,11.60
2009,08,22,04,50,11.60
2009,08,22,04,51,11.50
2009,08,22,04,52,11.50
2009,08,22,04,53,11.40
2009,08,22,04,54,11.40
2009,08,22,04,55,11.40
2009,08,22,04,56,11.40
2009,08,22,04,57,11.40
2009,08,22,04,58,11.30
2009,08,22,04,59,11.30
2009,08,22,05,00,11.20
2009,08,22,05,01,11.20
2009,08,22,05,02,11.10
2009,08,22,05,03,11.00
2009,08,22,05,04,10.90
2009,08,22,05,05,10.80
2009,08,22,05,06,10.80
2009,08,22,05,07,10.70
2009,08,22,05,08,10.60
2009,08,22,05,09,10.50
2009,08,22,05,10,10.50
2009,08,22,05,11,10.40
2009,08,22,05,12,10.40
2009,08,22,05,13,10.40
2009,08,22,05,14,10.40
2009,08,22,05,15,10.40
2009,08,22,05,16,10.40
2009,08,22,05,17,10.40
2009,08,22,05,18,10.40
2009,08,22,05,19,10.50
2009,08,22,05,20,10.60
2009,08,22,05,21,10.70
2009,08,22,05,22,10.70
2009,08,22,05,23,10.80
2009,08,22,05,24,10.80
2009,08,22,05,25,10.90
2009,08,22,05,26,10.90
2009,08,22,05,27,11.00
2009,08,22,05,28,11.00
2009,08,22,05,29,11.10
2009,08,22,05,30,11.10
2009,08,22,05,31,11.20
2009,08,22,05,32,11.20
2009,08,22,05,33,11.20
2009,08,22,05,34,11.20
2009,08,22,05,35,11.20
2009,08,22,05,36,11.20
2009,08,22,05,37,11.20
2009,08,22,05,38,11.20
2009,08,22,05,39,11.10
2009,08,22,05,40,11.10
2009,08,22,05,41,11.10
2009,08,22,05,42,11.10
2009,08,22,05,43,11.10
2009,08,22,05,44,11.00
2009,08,22,05,45,11.00
2009,08,22,05,46,11.00
2009,08,22,05,47,10.90
2009,08,22,05,48,10.90
2009,08,22,05,49,10.80
2009,08,22,05,50,10.80
2009,08,22,05,51,10.70
2009,08,22,05,52,10.60
2009,08,22,05,53,10.60
2009,08,22,05,54,10.50
2009,08,22,05,55,10.40
2009,08,22,05,56,10.30
2009,08,22,05,57,10.20
2009,08,22,05,58,10.20
2009,08,22,05,59,10.10
2009,08,22,06,00,10.00
2009,08,22,06,01,10.00
2009,08,22,06,02,9.90
2009,08,22,06,03,9.90
2009,08,22,06,04,9.80
2009,08,22,06,05,9.70
2009,08,22,06,06,9.70
2009,08,22,06,07,9.70
2009,08,22,06,08,9.60
2009,08,22,06,09,9.60
2009,08,22,06,10,9.50
2009,08,22,06,11,9.50
2009,08,22,06,12,9.40
2009,08,22,06,13,9.40
2009,08,22,06,14,9.40
2009,08,22,06,15,9.30
2009,08,22,06,16,9.30
2009,08,22,06,17,9.30
2009,08,22,06,18,9.20
2009,08,22,06,19,9.20
2009,08,22,06,20,9.10
2009,08,22,06,21,9.10
2009,08,22,06,22,9.00
2009,08,22,06,23,9.00
2009,08,22,06,24,8.90
2009,08,22,06,25,8.90
2009,08,22,06,26,8.90
2009,08,22,06,27,8.80
2009,08,22,06,28,8.80
2009,08,22,06,29,8.80
2009,08,22,06,30,8.90
2009,08,22,06,31,8.90
2009,08,22,06,32,8.90
2009,08,22,06,33,8.90
2009,08,22,06,34,8.90
2009,08,22,06,35,8.90
2009,08,22,06,36,8.90
2009,08,22,06,37,8.90
2009,08,22,06,38,9.00
2009,08,22,06,39,9.00
2009,08,22,06,40,9.00
2009,08,22,06,41,9.10
2009,08,22,06,42,9.10
2009,08,22,06,43,9.10
2009,08,22,06,44,9.10
2009,08,22,06,45,9.10
2009,08,22,06,46,9.10
2009,08,22,06,47,9.10
2009,08,22,06,48,9.10
2009,08,22,06,49,9.10
2009,08,22,06,50,9.20
2009,08,22,06,51,9.20
2009,08,22,06,52,9.30
2009,08,22,06,53,9.40
2009,08,22,06,54,9.40
2009,08,22,06,55,9.50
2009,08,22,06,56,9.60
2009,08,22,06,57,9.60
2009,08,22,06,58,9.70
2009,08,22,06,59,9.70
2009,08,22,07,00,9.80
2009,08,22,07,01,9.90
2009,08,22,07,02,9.90
2009,08,22,07,03,10.00
2009,08,22,07,04,10.10
2009,08,22,07,05,10.20
2009,08,22,07,06,10.30
2009,08,22,07,07,10.50
2009,08,22,07,08,10.60
2009,08,22,07,09,10.70
2009,08,22,07,10,10.80
2009,08,22,07,11,10.90
2009,08,22,07,12,11.00
2009,08,22,07,13,11.10
2009,08,22,07,14,11.10
2009,08,22,07,15,11.20
2009,08,22,07,16,11.20
2009,08,22,07,17,11.30
2009,08,22,07,18,11.30
2009,08,22,07,19,11.40
2009,08,22,07,20,11.40
2009,08,22,07,21,11.40
2009,08,22,07,22,11.50
2009,08,22,07,23,11.50
2009,08,22,07,24,11.60
2009,08,22,07,25,11.60
2009,08,22,07,26,11.60
2009,08,22,07,27,11.60
2009,08,22,07,28,11.70
2009,08,22,07,29,11.70
2009,08,22,07,30,11.70
2009,08,22,07,31,11.70
2009,08,22,07,32,11.70
2009,08,22,07,33,11.80
2009,08,22,07,34,11.80
2009,08,22,07,35,11.80
2009,08,22,07,36,11.80
2009,08,22,07,37,11.80
2009,08,22,07,38,11.80
2009,08,22,07,39,11.80
2009,08,22,07,40,11.80
2009,08,22,07,41,11.80
2009,08,22,07,42,11.80
2009,08,22,07,43,11.90
2009,08,22,07,44,11.90
2009,08,22,07,45,11.90
2009,08,22,07,46,11.90
2009,08,22,07,47,11.90
2009,08,22,07,48,12.00
2009,08,22,07,49,12.00
2009,08,22,07,50,12.10
2009,08,22,07,51,12.10
2009,08,22,07,52,12.20
2009,08,22,07,53,12.20
2009,08,22,07,54,12.30
2009,08,22,07,55,12.40
2009,08,22,07,56,12.40
2009,08,22,07,57,12.50
2009,08,22,07,58,12.50
2009,08,22,07,59,12.60
2009,08,22,08,00,12.60
2009,08,22,08,01,12.70
2009,08,22,08,02,12.70
2009,08,22,08,03,12.80
2009,08,22,08,04,12.80
2009,08,22,08,05,12.90
2009,08,22,08,06,12.90
2009,08,22,08,07,13.00
2009,08,22,08,08,13.10
2009,08,22,08,09,13.10
2009,08,22,08,10,13.20
2009,08,22,08,11,13.20
2009,08,22,08,12,13.30
2009,08,22,08,13,13.30
2009,08,22,08,14,13.40
2009,08,22,08,15,13.40
2009,08,22,08,16,13.50
2009,08,22,08,17,13.50
2009,08,22,08,18,13.60
2009,08,22,08,19,13.60
2009,08,22,08,20,13.60
2009,08,22,08,21,13.70
2009,08,22,08,22,13.70
2009,08,22,08,23,13.70
2009,08,22,08,24,13.80
2009,08,22,08,25,13.80
2009,08,22,08,26,13.80
2009,08,22,08,27,13.80
2009,08,22,08,28,13.80
2009,08,22,08,29,13.90
2009,08,22,08,30,13.90
2009,08,22,08,31,13.90
2009,08,22,08,32,14.00
2009,08,22,08,33,14.00
2009,08,22,08,34,14.10
2009,08,22,08,35,14.10
2009,08,22,08,36,14.20
2009,08,22,08,37,14.20
2009,08,22,08,38,14.30
2009,08,22,08,39,14.40
2009,08,22,08,40,14.50
2009,08,22,08,41,14.50
2009,08,22,08,42,14.60
2009,08,22,08,43,14.70
2009,08,22,08,44,14.70
2009,08,22,08,45,14.80
2009,08,22,08,46,14.80
2009,08,22,08,47,14.90
2009,08,22,08,48,15.00
2009,08,22,08,49,15.00
2009,08,22,08,50,15.00
2009,08,22,08,51,15.20
2009,08,22,08,52,15.30
2009,08,22,08,53,15.30
2009,08,22,08,54,15.30
2009,08,22,08,55,15.40
2009,08,22,08,56,15.40
2009,08,22,08,57,15.50
2009,08,22,08,58,15.50
2009,08,22,08,59,15.60
2009,08,22,09,00,15.60
2009,08,22,09,01,15.60
2009,08,22,09,02,15.60
2009,08,22,09,03,15.60
2009,08,22,09,04,15.60
2009,08,22,09,05,15.70
2009,08,22,09,06,15.80
2009,08,22,09,07,15.90
2009,08,22,09,08,15.90
2009,08,22,09,09,15.90
2009,08,22,09,10,16.00
2009,08,22,09,11,16.00
2009,08,22,09,12,16.10
2009,08,22,09,13,16.10
2009,08,22,09,14,16.20
2009,08,22,09,15,16.20
2009,08,22,09,16,16.20
2009,08,22,09,17,16.20
2009,08,22,09,18,16.30
2009,08,22,09,19,16.30
2009,08,22,09,20,16.20
2009,08,22,09,21,16.10
2009,08,22,09,22,16.00
2009,08,22,09,23,16.00
2009,08,22,09,24,15.90
2009,08,22,09,25,15.90
2009,08,22,09,26,16.00
2009,08,22,09,27,16.10
2009,08,22,09,28,16.10
2009,08,22,09,29,16.10
2009,08,22,09,30,16.20
2009,08,22,09,31,16.20
2009,08,22,09,32,16.20
2009,08,22,09,33,16.20
2009,08,22,09,34,16.30
2009,08,22,09,35,16.30
2009,08,22,09,36,16.40
2009,08,22,09,37,16.40
2009,08,22,09,38,16.50
2009,08,22,09,39,16.60
2009,08,22,09,40,16.70
2009,08,22,09,41,16.80
2009,08,22,09,42,16.90
2009,08,22,09,43,17.00
2009,08,22,09,44,17.10
2009,08,22,09,45,17.10
2009,08,22,09,46,17.20
2009,08,22,09,47,17.30
2009,08,22,09,48,17.40
2009,08,22,09,49,17.50
2009,08,22,09,50,17.50
2009,08,22,09,51,17.60
2009,08,22,09,52,17.60
2009,08,22,09,53,17.60
2009,08,22,09,54,17.70
2009,08,22,09,55,17.70
2009,08,22,09,56,17.60
2009,08,22,09,57,17.60
2009,08,22,09,58,17.60
2009,08,22,09,59,17.60
2009,08,22,10,00,17.60
2009,08,22,10,01,17.70
2009,08,22,10,02,17.70
2009,08,22,10,03,17.70
2009,08,22,10,04,17.70
2009,08,22,10,05,17.70
2009,08,22,10,06,17.70
2009,08,22,10,07,17.80
2009,08,22,10,08,17.80
2009,08,22,10,09,17.80
2009,08,22,10,10,17.80
2009,08,22,10,11,17.80
2009,08,22,10,12,17.80
2009,08,22,10,13,17.80
2009,08,22,10,14,17.70
2009,08,22,10,15,17.70
2009,08,22,10,16,17.70
2009,08,22,10,17,17.70
2009,08,22,10,18,17.70
2009,08,22,10,19,17.80
2009,08,22,10,20,17.90
2009,08,22,10,21,17.90
2009,08,22,10,22,18.00
2009,08,22,10,23,18.10
2009,08,22,10,24,18.10
2009,08,22,10,25,18.20
2009,08,22,10,26,18.20
2009,08,22,10,27,18.30
2009,08,22,10,28,18.30
2009,08,22,10,29,18.30
2009,08,22,10,30,18.30
2009,08,22,10,31,18.30
2009,08,22,10,32,18.30
2009,08,22,10,33,18.30
2009,08,22,10,34,18.40
2009,08,22,10,35,18.50
2009,08,22,10,36,18.60
2009,08,22,10,37,18.60
2009,08,22,10,38,18.70
2009,08,22,10,39,18.70
2009,08,22,10,40,18.70
2009,08,22,10,41,18.70
2009,08,22,10,42,18.80
2009,08,22,10,43,18.90
2009,08,22,10,44,19.00
2009,08,22,10,45,19.00
2009,08,22,10,46,19.10
2009,08,22,10,47,19.10
2009,08,22,10,48,19.20
2009,08,22,10,49,19.10
2009,08,22,10,50,19.10
2009,08,22,10,51,19.10
2009,08,22,10,52,19.10
2009,08,22,10,53,19.10
2009,08,22,10,54,19.10
2009,08,22,10,55,19.10
2009,08,22,10,56,19.20
2009,08,22,10,57,19.20
2009,08,22,10,58,19.20
2009,08,22,10,59,19.30
2009,08,22,11,00,19.40
2009,08,22,11,01,19.50
2009,08,22,11,02,19.60
2009,08,22,11,03,19.70
2009,08,22,11,04,19.70
2009,08,22,11,05,19.70
2009,08,22,11,06,19.70
2009,08,22,11,07,19.70
2009,08,22,11,08,19.70
2009,08,22,11,09,19.70
2009,08,22,11,10,19.80
2009,08,22,11,11,19.90
2009,08,22,11,12,20.00
2009,08,22,11,13,20.10
2009,08,22,11,14,20.30
2009,08,22,11,15,20.30
2009,08,22,11,16,20.40
2009,08,22,11,17,20.40
2009,08,22,11,18,20.30
2009,08,22,11,19,20.10
2009,08,22,11,20,19.90
2009,08,22,11,21,19.80
2009,08,22,11,22,19.70
2009,08,22,11,23,19.70
2009,08,22,11,24,19.70
2009,08,22,11,25,19.70
2009,08,22,11,26,19.70
2009,08,22,11,27,19.70
2009,08,22,11,28,19.70
2009,08,22,11,29,19.50
2009,08,22,11,30,19.40
2009,08,22,11,31,19.30
2009,08,22,11,32,19.10
2009,08,22,11,33,19.00
2009,08,22,11,34,19.00
2009,08,22,11,35,18.90
2009,08,22,11,36,18.90
2009,08,22,11,37,18.80
2009,08,22,11,38,18.70
2009,08,22,11,39,18.60
2009,08,22,11,40,18.50
2009,08,22,11,41,18.50
2009,08,22,11,42,18.40
2009,08,22,11,43,18.40
2009,08,22,11,44,18.30
2009,08,22,11,45,18.30
2009,08,22,11,46,18.30
2009,08,22,11,47,18.20
2009,08,22,11,48,18.30
2009,08,22,11,49,18.30
2009,08,22,11,50,18.40
2009,08,22,11,51,18.50
2009,08,22,11,52,18.60
2009,08,22,11,53,18.60
2009,08,22,11,54,18.70
2009,08,22,11,55,18.70
2009,08,22,11,56,18.80
2009,08,22,11,57,18.90
2009,08,22,11,58,19.00
2009,08,22,11,59,19.10
2009,08,22,12,00,19.20
2009,08,22,12,01,19.20
2009,08,22,12,02,19.20
2009,08,22,12,03,19.10
2009,08,22,12,04,19.10
2009,08,22,12,05,19.10
2009,08,22,12,06,19.20
2009,08,22,12,07,19.20
2009,08,22,12,08,19.30
2009,08,22,12,09,19.40
2009,08,22,12,10,19.50
2009,08,22,12,11,19.60
2009,08,22,12,12,19.60
2009,08,22,12,13,19.50
2009,08,22,12,14,19.40
2009,08,22,12,15,19.50
2009,08,22,12,16,19.50
2009,08,22,12,17,19.50
2009,08,22,12,18,19.40
2009,08,22,12,19,19.40
2009,08,22,12,20,19.40
2009,08,22,12,21,19.30
2009,08,22,12,22,19.30
2009,08,22,12,23,19.20
2009,08,22,12,24,19.20
2009,08,22,12,25,19.20
2009,08,22,12,26,19.20
2009,08,22,12,27,19.20
2009,08,22,12,28,19.30
2009,08,22,12,29,19.30
2009,08,22,12,30,19.30
2009,08,22,12,31,19.30
2009,08,22,12,32,19.40
2009,08,22,12,33,19.40
2009,08,22,12,34,19.40
2009,08,22,12,35,19.40
2009,08,22,12,36,19.40
2009,08,22,12,37,19.40
2009,08,22,12,38,19.50
2009,08,22,12,39,19.60
2009,08,22,12,40,19.60
2009,08,22,12,41,19.60
2009,08,22,12,42,19.60
2009,08,22,12,43,19.60
2009,08,22,12,44,19.50
2009,08,22,12,45,19.40
2009,08,22,12,46,19.40
2009,08,22,12,47,19.40
2009,08,22,12,48,19.30
2009,08,22,12,49,19.40
2009,08,22,12,50,19.40
2009,08,22,12,51,19.50
2009,08,22,12,52,19.60
2009,08,22,12,53,19.70
2009,08,22,12,54,19.80
2009,08,22,12,55,19.80
2009,08,22,12,56,19.80
2009,08,22,12,57,19.70
2009,08,22,12,58,19.50
2009,08,22,12,59,19.40
2009,08,22,13,00,19.40
2009,08,22,13,01,19.40
2009,08,22,13,02,19.50
2009,08,22,13,03,19.50
2009,08,22,13,04,19.50
2009,08,22,13,05,19.50
2009,08,22,13,06,19.50
2009,08,22,13,07,19.40
2009,08,22,13,08,19.50
2009,08,22,13,09,19.60
2009,08,22,13,10,19.60
2009,08,22,13,11,19.60
2009,08,22,13,12,19.60
2009,08,22,13,13,19.60
2009,08,22,13,14,19.60
2009,08,22,13,15,19.60
2009,08,22,13,16,19.60
2009,08,22,13,17,19.50
2009,08,22,13,18,19.50
2009,08,22,13,19,19.50
2009,08,22,13,20,19.60
2009,08,22,13,21,19.60
2009,08,22,13,22,19.60
2009,08,22,13,23,19.60
2009,08,22,13,24,19.60
2009,08,22,13,25,19.60
2009,08,22,13,26,19.60
2009,08,22,13,27,19.60
2009,08,22,13,28,19.60
2009,08,22,13,29,19.60
2009,08,22,13,30,19.60
2009,08,22,13,31,19.50
2009,08,22,13,32,19.40
2009,08,22,13,33,19.30
2009,08,22,13,34,19.30
2009,08,22,13,35,19.30
2009,08,22,13,36,19.20
2009,08,22,13,37,19.10
2009,08,22,13,38,19.10
2009,08,22,13,39,19.00
2009,08,22,13,40,18.90
2009,08,22,13,41,18.90
2009,08,22,13,42,18.90
2009,08,22,13,43,18.80
2009,08,22,13,44,18.80
2009,08,22,13,45,18.80
2009,08,22,13,46,18.90
2009,08,22,13,47,18.90
2009,08,22,13,48,19.00
2009,08,22,13,49,19.10
2009,08,22,13,50,19.10
2009,08,22,13,51,19.00
2009,08,22,13,52,19.00
2009,08,22,13,53,19.00
2009,08,22,13,54,19.00
2009,08,22,13,55,18.90
2009,08,22,13,56,18.90
2009,08,22,13,57,18.90
2009,08,22,13,58,19.00
2009,08,22,13,59,19.00
2009,08,22,14,00,19.10
2009,08,22,14,01,19.10
2009,08,22,14,02,19.20
2009,08,22,14,03,19.30
2009,08,22,14,04,19.30
2009,08,22,14,05,19.40
2009,08,22,14,06,19.40
2009,08,22,14,07,19.40
2009,08,22,14,08,19.40
2009,08,22,14,09,19.50
2009,08,22,14,10,19.50
2009,08,22,14,11,19.60
2009,08,22,14,12,19.60
2009,08,22,14,13,19.60
2009,08,22,14,14,19.60
2009,08,22,14,15,19.60
2009,08,22,14,16,19.60
2009,08,22,14,17,19.50
2009,08,22,14,18,19.50
2009,08,22,14,19,19.50
2009,08,22,14,20,19.50
2009,08,22,14,21,19.70
2009,08,22,14,22,19.80
2009,08,22,14,23,19.90
2009,08,22,14,24,19.90
2009,08,22,14,25,19.90
2009,08,22,14,26,20.00
2009,08,22,14,27,20.00
2009,08,22,14,28,20.10
2009,08,22,14,29,20.20
2009,08,22,14,30,20.40
2009,08,22,14,31,20.50
2009,08,22,14,32,20.50
2009,08,22,14,33,20.60
2009,08,22,14,34,20.70
2009,08,22,14,35,20.70
2009,08,22,14,36,20.70
2009,08,22,14,37,20.70
2009,08,22,14,38,20.60
2009,08,22,14,39,20.50
2009,08,22,14,40,20.40
2009,08,22,14,41,20.40
2009,08,22,14,42,20.40
2009,08,22,14,43,20.40
2009,08,22,14,44,20.50
2009,08,22,14,45,20.60
2009,08,22,14,46,20.60
2009,08,22,14,47,20.60
2009,08,22,14,48,20.50
2009,08,22,14,49,20.40
2009,08,22,14,50,20.40
2009,08,22,14,51,20.30
2009,08,22,14,52,20.20
2009,08,22,14,53,20.10
2009,08,22,14,54,20.00
2009,08,22,14,55,20.00
2009,08,22,14,56,20.00
2009,08,22,14,57,19.90
2009,08,22,14,58,19.90
2009,08,22,14,59,19.80
2009,08,22,15,00,19.80
2009,08,22,15,01,19.80
2009,08,22,15,02,19.70
2009,08,22,15,03,19.70
2009,08,22,15,04,19.70
2009,08,22,15,05,19.80
2009,08,22,15,06,19.80
2009,08,22,15,07,19.80
2009,08,22,15,08,19.90
2009,08,22,15,09,19.90
2009,08,22,15,10,20.00
2009,08,22,15,11,20.00
2009,08,22,15,12,20.00
2009,08,22,15,13,19.90
2009,08,22,15,14,19.80
2009,08,22,15,15,19.80
2009,08,22,15,16,19.80
2009,08,22,15,17,19.80
2009,08,22,15,18,19.80
2009,08,22,15,19,19.80
2009,08,22,15,20,19.80
2009,08,22,15,21,19.80
2009,08,22,15,22,19.80
2009,08,22,15,23,19.80
2009,08,22,15,24,19.90
2009,08,22,15,25,19.90
2009,08,22,15,26,20.00
2009,08,22,15,27,20.10
2009,08,22,15,28,20.10
2009,08,22,15,29,20.00
2009,08,22,15,30,19.90
2009,08,22,15,31,19.80
2009,08,22,15,32,19.70
2009,08,22,15,33,19.70
2009,08,22,15,34,19.70
2009,08,22,15,35,19.60
2009,08,22,15,36,19.60
2009,08,22,15,37,19.60
2009,08,22,15,38,19.70
2009,08,22,15,39,19.80
2009,08,22,15,40,19.80
2009,08,22,15,41,19.80
2009,08,22,15,42,19.80
2009,08,22,15,43,19.70
2009,08,22,15,44,19.70
2009,08,22,15,45,19.60
2009,08,22,15,46,19.60
2009,08,22,15,47,19.60
2009,08,22,15,48,19.70
2009,08,22,15,49,19.70
2009,08,22,15,50,19.80
2009,08,22,15,51,19.80
2009,08,22,15,52,19.80
2009,08,22,15,53,19.90
2009,08,22,15,54,19.90
2009,08,22,15,55,19.90
2009,08,22,15,56,19.90
2009,08,22,15,57,19.90
2009,08,22,15,58,19.90
2009,08,22,15,59,19.90
2009,08,22,16,00,19.90
2009,08,22,16,01,19.80
2009,08,22,16,02,19.80
2009,08,22,16,03,19.80
2009,08,22,16,04,19.70
2009,08,22,16,05,19.70
2009,08,22,16,06,19.70
2009,08,22,16,07,19.70
2009,08,22,16,08,19.70
2009,08,22,16,09,19.70
2009,08,22,16,10,19.80
2009,08,22,16,11,19.80
2009,08,22,16,12,19.80
2009,08,22,16,13,19.90
2009,08,22,16,14,19.90
2009,08,22,16,15,20.00
2009,08,22,16,16,20.00
2009,08,22,16,17,20.00
2009,08,22,16,18,20.00
2009,08,22,16,19,20.10
2009,08,22,16,20,20.10
2009,08,22,16,21,20.10
2009,08,22,16,22,20.20
2009,08,22,16,23,20.20
2009,08,22,16,24,20.20
2009,08,22,16,25,20.20
2009,08,22,16,26,20.30
2009,08,22,16,27,20.30
2009,08,22,16,28,20.30
2009,08,22,16,29,20.20
2009,08,22,16,30,20.20
2009,08,22,16,31,20.10
2009,08,22,16,32,20.00
2009,08,22,16,33,20.00
2009,08,22,16,34,20.00
2009,08,22,16,35,19.90
2009,08,22,16,36,19.90
2009,08,22,16,37,19.90
2009,08,22,16,38,19.80
2009,08,22,16,39,19.80
2009,08,22,16,40,19.80
2009,08,22,16,41,19.80
2009,08,22,16,42,19.80
2009,08,22,16,43,19.80
2009,08,22,16,44,19.80
2009,08,22,16,45,19.80
2009,08,22,16,46,19.80
2009,08,22,16,47,19.80
2009,08,22,16,48,19.80
2009,08,22,16,49,19.80
2009,08,22,16,50,19.80
2009,08,22,16,51,19.70
2009,08,22,16,52,19.70
2009,08,22,16,53,19.70
2009,08,22,16,54,19.70
2009,08,22,16,55,19.60
2009,08,22,16,56,19.60
2009,08,22,16,57,19.60
2009,08,22,16,58,19.60
2009,08,22,16,59,19.60
2009,08,22,17,00,19.60
2009,08,22,17,01,19.60
2009,08,22,17,02,19.70
2009,08,22,17,03,19.70
2009,08,22,17,04,19.60
2009,08,22,17,05,19.60
2009,08,22,17,06,19.70
2009,08,22,17,07,19.70
2009,08,22,17,08,19.70
2009,08,22,17,09,19.70
2009,08,22,17,10,19.70
2009,08,22,17,11,19.70
2009,08,22,17,12,19.60
2009,08,22,17,13,19.60
2009,08,22,17,14,19.50
2009,08,22,17,15,19.50
2009,08,22,17,16,19.40
2009,08,22,17,17,19.40
2009,08,22,17,18,19.40
2009,08,22,17,19,19.40
2009,08,22,17,20,19.40
2009,08,22,17,21,19.50
2009,08,22,17,22,19.50
2009,08,22,17,23,19.60